#timestamp,LO_Frequency,Hit,StdDev 
1556989215.1,286047000.8,N
1556989235.9,286046998.2,N
1556989255.7,286046998.9,N
1556989275.6,286046998.9,N
1556989295.4,286046999.7,N
1556989315.2,286047002.8,N
1556989335.1,286046999.9,N
1556989336.0,286046999.9,N
1556989355.8,286046999.8,N
1556989375.6,286046999.7,N
1556989395.5,286047000.6,N
1556989415.3,286046998.5,N
1556989435.2,286046998.3,N
1556989455.9,286046999.3,N
1556989475.7,286046999.6,N
1556989495.6,286046996.9,N
1556989515.4,286046997.1,N
1556989535.2,286046996.8,N
1556989555.1,286046996.8,N
1556989556.0,286046996.8,N
1556989575.8,286046997.1,N
1556989595.7,286046997.2,N
1556989615.5,286046995.0,Y
1556989635.3,286046999.6,P
1556989655.2,286046999.0,P
1556989675.0,286047001.0,P
1556989675.9,286047001.0,N
1556989695.7,286047000.0,N
1556989715.6,286047000.2,N
1556989735.4,286046999.7,N
1556989755.3,286047000.8,N
1556989775.1,286047000.8,N
1556989795.8,286047002.4,Y
1556989815.7,286047002.3,P
1556989835.5,286046999.7,N
1556989855.4,286046999.9,N
1556989875.2,286047000.3,N
1556989895.0,286046998.9,N
1556989895.9,286046998.9,N
1556989915.8,286046998.5,N
1556989935.6,286047001.1,N
1556989955.4,286046998.8,N
1556989975.3,286046999.4,N
1556989995.1,286046999.5,N
1556990015.9,286046999.2,N
1556990035.7,286046999.1,N
1556990055.5,286047000.7,N
1556990075.4,286047000.3,N
1556990095.2,286047002.4,N
1556990115.1,286047002.7,N
1556990116.0,286047002.7,N
1556990135.8,286047001.5,N
1556990155.6,286047002.5,N
1556990175.5,286047001.7,N
1556990195.3,286047002.3,N
1556990215.1,286046999.9,N
1556990235.9,286047002.0,N
1556990255.7,286047001.5,N
1556990275.6,286047001.3,N
1556990295.4,286047002.1,N
1556990315.2,286047001.8,N
1556990335.1,286047001.9,N
1556990336.0,286047001.9,N
1556990355.8,286047002.8,N
1556990375.7,286047001.5,N
1556990395.5,286047002.2,N
1556990415.3,286047000.1,N
1556990435.2,286047002.8,N
1556990455.0,286047000.2,N
1556990455.9,286047000.2,N
1556990475.8,286046998.4,N
1556990495.6,286046999.0,N
1556990515.4,286047001.1,N
1556990535.3,286046998.5,N
1556990555.1,286047002.5,N
1556990575.8,286047002.0,N
1556990595.7,286047002.1,N
1556990615.5,286047001.9,N
1556990635.3,286047001.4,N
1556990655.2,286047001.8,N
1556990675.0,286047004.0,Y
1556990675.9,286047004.0,P
1556990695.8,286046999.9,N
1556990715.6,286047000.8,N
1556990735.4,286046998.8,N
1556990755.3,286046998.6,N
1556990775.1,286047004.0,N
1556990795.9,286047003.3,N
1556990815.7,286047004.3,N
1556990835.5,286047004.3,N
1556990855.4,286047004.3,N
1556990875.2,286047003.3,N
1556990895.0,286047005.9,N
1556990895.9,286047005.9,N
1556990915.8,286047003.5,N
1556990935.6,286047003.2,N
1556990955.5,286047003.0,N
1556990975.3,286047003.4,N
1556990995.1,286047003.7,N
1556991015.9,286047003.2,N
1556991035.7,286047002.9,N
1556991055.5,286047001.8,N
1556991075.4,286047004.2,N
1556991095.2,286047002.5,N
1556991115.1,286047000.4,N
1556991116.0,286047000.4,N
1556991135.8,286047002.7,N
1556991155.6,286047002.7,N
1556991175.5,286047000.0,N
1556991195.3,286047000.9,N
1556991215.2,286046998.4,N
1556991235.9,286046998.9,N
1556991255.7,286047001.0,N
1556991275.6,286047000.6,N
1556991295.4,286047000.9,N
1556991315.2,286047002.3,N
1556991335.1,286047002.6,N
1556991336.0,286047002.6,N
1556991355.8,286047001.8,N
1556991375.7,286047001.4,N
1556991395.5,286047003.6,N
1556991415.3,286047003.5,N
1556991435.2,286047001.5,N
1556991455.0,286047004.1,N
1556991455.9,286047004.1,N
1556991475.8,286047002.9,N
1556991495.6,286047005.6,Y
1556991515.4,286047004.1,P
1556991535.3,286047003.8,P
1556991555.1,286047003.8,P
1556991575.9,286047003.8,Y
1556991595.7,286047000.8,P
1556991615.5,286046999.1,N
1556991635.4,286046999.6,N
1556991655.2,286046996.8,N
1556991675.0,286046997.7,N
1556991675.9,286046997.7,N
1556991695.8,286046996.7,N
1556991715.6,286046996.7,N
1556991735.5,286046997.4,N
1556991755.3,286046996.7,N
1556991775.1,286046996.7,N
1556991795.9,286046999.5,N
1556991815.7,286046996.8,N
1556991835.5,286046996.8,N
1556991855.4,286046999.6,N
1556991875.2,286046997.2,N
1556991895.1,286046997.8,N
1556991896.0,286046997.8,N
1556991915.8,286046996.7,N
1556991935.6,286046996.5,N
1556991955.5,286046996.8,N
1556991975.3,286046999.3,N
1556991995.1,286046996.9,N
1556992015.9,286046998.6,N
1556992035.7,286047000.6,N
1556992055.6,286046999.0,N
1556992075.4,286046999.1,N
1556992095.2,286046997.1,N
1556992115.1,286046996.7,N
1556992116.0,286046996.7,N
1556992135.8,286046999.1,N
1556992155.6,286046999.6,N
1556992175.5,286046999.6,N
1556992195.3,286046999.4,N
1556992215.2,286046998.2,N
1556992235.9,286047000.6,N
1556992255.7,286047000.6,N
1556992275.6,286046998.2,N
1556992295.4,286046997.8,N
1556992315.2,286046997.4,N
1556992335.1,286046997.3,N
1556992336.0,286046997.3,N
1556992355.8,286046997.2,N
1556992375.7,286046997.8,N
1556992395.5,286046995.7,Y
1556992415.3,286046997.2,P
1556992435.2,286046996.8,P
1556992455.0,286046997.6,P
1556992455.9,286046997.6,Y
1556992475.7,286047001.0,P
1556992495.6,286047002.6,N
1556992515.4,286047002.8,N
1556992535.3,286047004.4,N
1556992555.1,286047003.4,N
1556992556.0,286047003.4,N
1556992575.8,286047005.9,N
1556992595.7,286047005.6,N
1556992615.5,286047005.8,N
1556992635.4,286047002.9,N
1556992655.2,286047003.5,N
1556992675.0,286047001.9,N
1556992675.9,286047001.9,N
1556992695.8,286047002.0,N
1556992715.6,286047002.1,N
1556992735.4,286047001.8,N
1556992755.3,286047004.4,N
1556992775.1,286047003.4,N
1556992795.9,286047001.3,N
